{"data":{"norad_id":65211,"intl_designator":"2025-176P","name":"STARLINK-34847","alt_names":[],"object_type":"PAYLOAD","status":"ACTIVE","operator":null,"country":"US","launch_date":"2025-08-14","launch_site_code":"AFETR","launch_vehicle":null,"mission":null,"orbit_class":"UNKNOWN","rcs_meters":null,"size_class":null,"mass_kg":null,"dimensions":null,"purposes":["comms"],"wikipedia_slug":null,"has_3d_model":false,"image_url":null,"decayed_at":null,"tle_current":{"epoch":"2026-05-24T23:59:30.859872Z","epoch_age_seconds":68910,"freshness":"FRESH","line1":"1 65211U 25176P   26144.99966273  .00012571  00000+0  43576-3 0  9997","line2":"2 65211  53.1567 158.2925 0001048  79.5527 280.5592 15.30206229 44801","mean_motion":15.30206229,"eccentricity":0.0001048,"inclination_deg":53.1567,"raan_deg":158.2925,"arg_perigee_deg":79.5527,"mean_anomaly_deg":280.5592,"bstar":0.00043576,"rev_number":4480,"period_min":94.104962632458,"perigee_km":474.47824146346,"apogee_km":475.91470015894,"semimajor_km":6853.3334708112,"source":"CELESTRAK","updated_at":"2026-05-25T13:38:20.720368Z"}}}